CAPE
1 5 0 7 0 13 7 2 9 0 0 0 0 0 1 0 0 0 0 0 0 0 0 0 3 9 0 4 3 21 1 3 24 35 4 0 21 76
6 0 0 14 0 0 1 1 3 8 4 0 0 1 0 0 0 0 0 0 0 0 1 1 4 8 4 5 1 0 0 0 3 23 10 0 0 0
13 0 0 0 0 0 0 0 0 0 0 0 0 0 0 0 0 0 0 0 0 6 11 3 7 2 0 0 0 0 0 0 0 1 12 1 0 0
1 0 0 0 0 0 0 0 0 0 0 0 0 0 0 0 0 0 0 3 0 2 2 10 9 10 0 0 0 0 0 0 0 0 0 0 0 0
0 0 0 0 0 0 0 0 0 0 0 0 0 0 0 0 0 0 0 0 0 6 4 1 1 12 2 0 0 0 0 0 0 0 0 0 0 0
0 0 0 0 0 0 0 0 0 0 0 0 0 0 0 0 1 0 0 0 0 0 0 5 10 2 0 0 1 0 0 0 0 0 0 0 0 0
0 0 0 0 0 0 0 0 0 0 0 0 0 0 0 0 0 0 1 0 0 0 3 0 0 0 0 0 16 1 0 0 0 0 0 0 0 0
0 0 0 0 0 0 0 0 0 0 0 0 0 0 0 1 0 0 0 0 0 0 0 0 0 0 0 2 0 0 0 0 0 0 0 0 0 0
0 0 0 0 0 0 0 0 0 0 0 0 0 0 1 0 0 0 0 0 0 0 0 0 0 0 0 0 0 0 0 0 0 0 0 1 0 0
0 0 0 0 0 0 0 0 0 0 0 0 0 0 0 0 0 0 0 0 0 0 0 0 0 0 0 0 2 0 0 0 0 0 0 0 1 1
0 0 0 0 0 0 0 0 0 0 0 0 0 0 0 0 0 0 0 0 0 0 0 2 0 0 0 0 0 0 0 0 0 0 0 0 0 1
0 0 0 0 0 0 0 0 0 0 0 0 0 0 0 0 3 0 0 0 0 0 0 0 0 0 0 0 0 0 0 0 0 0 0 1 1 2
0 0 0 0 0 0 0 0 0 0 0 0 0 0 0 0 0 0 3 1 1 0 0 3 0 0 0 0 0 0 0 0 0 0 0 0 0 1
0 0 0 0 0 0 0 0 0 0 0 0 0 0 0 0 0 0 0 4 0 0 0 1 0 0 0 0 1 0 0 0 4 2 0 0 0 0
0 0 0 0 0 0 0 0 0 0 0 0 0 0 0 1 0 0 0 0 0 0 0 0 0 0 0 0 0 0 0 0 14 8 0 0 0 0
0 0 0 0 0 0 0 0 0 0 0 0 0 0 0 0 0 0 0 0 0 0 0 0 0 0 0 0 0 0 0 0 1 15 9 0 0 0
0 0 0 0 0 1 0 0 0 0 0 0 0 0 0 0 0 0 0 0 0 0 0 0 0 0 0 0 0 0 0 0 0 0 3 3 0 0
0 0 0 0 0 0 0 0 0 0 0 0 0 0 0 0 0 0 0 0 0 0 0 0 0 0 0 0 0 0 0 0 0 0 0 1 0 0
0 0 0 0 0 1 0 0 0 0 0 0 0 0 0 0 0 0 0 0 0 0 0 0 0 0 0 0 0 0 0 0 0 0 0 0 0 0
0 0 0 0 0 0 0 0 0 0 0 0 0 0 0 0 0 0 0 0 0 0 0 0 0 0 0 0 0 0 0 0 0 0 0 0 0 0
0 0 0 0 0 0 0 0 0 0 0 0 0 0 1 0 0 0 0 0 0 0 0 0 0 0 0 0 0 0 0 0 0 0 0 0 0 0
0 0 0 0 4 1 0 0 1 0 0 0 0 0 1 0 0 0 0 0 0 0 0 0 0 0 0 0 0 0 0 0 0 0 0 0 0 1
0 0 0 0 0 1 0 0 0 0 0 0 0 0 0 0 0 0 0 0 0 0 0 0 0 0 0 0 0 0 0 0 0 0 0 0 0 0
CIN
-6 -51 -0 -5 -3 -14 -9 -12 -6 -2 -0 -0 -0 -0 -1 -0 -0 -0 -0 -0 -0 -0 -0 -0 -7 -2 -1 -3 -0 -0 -0 -0 -0 -0 -12 -0 -30 -1
-10 -0 -0 -9 -0 -1 -12 -18 -14 -10 -3 -0 -0 -1 -0 -0 -0 -0 -0 -0 -0 -0 -2 -2 -1 -6 -20 -4 -2 -0 -0 -0 -0 -0 -8 -0 -0 -0
-7 -0 -0 -0 -32 -0 -0 -0 -0 -0 -0 -0 -0 -0 -0 -0 -0 -0 -0 -0 -0 -0 -0 -5 -2 -4 -0 -0 -0 -0 -0 -0 -0 -0 -22 -29 -0 -0
-12 -0 -0 -0 -0 -0 -0 -0 -0 -0 -0 -0 -0 -0 -0 -0 -0 -0 -0 -1 -0 -1 -6 -7 -7 -5 -2 -0 -0 -0 -0 -0 -0 -0 -0 -0 -6 -0
-1 -0 -0 -0 -0 -0 -0 -0 -0 -0 -0 -0 -0 -0 -0 -0 -0 -0 -0 -0 -8 -1 -2 -7 -1 -1 -15 -0 -0 -0 -0 -0 -0 -0 -0 -0 -0 -0
-0 -0 -0 -0 -0 -0 -0 -0 -0 -0 -0 -0 -0 -0 -0 -0 -0 -0 -0 -0 -0 -0 -1 -11 -4 -1 -0 -0 -4 -0 -0 -0 -0 -0 -0 -0 -0 -0
-0 -0 -0 -0 -0 -0 -0 -0 -0 -0 -0 -0 -0 -0 -0 -0 -0 -0 -0 -0 -0 -0 -9 -0 -0 -0 -0 -2 -2 -16 -0 -0 -0 -0 -0 -0 -0 -0
-0 -0 -0 -0 -0 -0 -0 -0 -0 -0 -0 -0 -0 -0 -0 -2 -0 -0 -0 -0 -0 -0 -0 -0 -0 -0 -0 -0 -0 -0 -0 -0 -0 -0 -0 -0 -0 -0
-0 -0 -0 -0 -0 -0 -0 -0 -0 -0 -0 -0 -0 -0 -2 -0 -0 -0 -0 -0 -0 -0 -0 -0 -0 -0 -0 -0 -0 -0 -0 -0 -0 -0 -0 -14 -0 -0
-0 -0 -0 -0 -0 -0 -0 -0 -0 -0 -0 -0 -0 -0 -0 -0 -0 -0 -0 -0 -0 -0 -0 -0 -0 -0 -0 -0 -3 -0 -0 -0 -0 -0 -1 -4 -1 -0
-0 -0 -0 -0 -0 -0 -0 -0 -0 -0 -0 -0 -0 -0 -0 -0 -0 -0 -0 -0 -0 -0 -0 -0 -0 -0 -0 -0 -0 -0 -0 -0 -0 -0 -0 -0 -0 -0
-0 -0 -0 -0 -0 -0 -0 -0 -0 -0 -0 -0 -0 -0 -0 -0 -0 -9 -0 -0 -0 -0 -0 -0 -0 -0 -0 -0 -0 -0 -0 -0 -0 -0 -0 -0 -0 -0
-0 -0 -0 -0 -0 -0 -0 -0 -0 -0 -0 -0 -0 -0 -0 -0 -0 -0 -1 -3 -2 -0 -0 -1 -0 -0 -0 -0 -2 -0 -0 -0 -8 -0 -0 -0 -0 -0
-0 -0 -0 -0 -0 -0 -0 -0 -0 -0 -0 -0 -0 -0 -0 -0 -0 -0 -0 -0 -0 -0 -0 -4 -0 -0 -0 -0 -2 -0 -3 -8 -12 -16 -0 -0 -0 -0
-0 -0 -0 -0 -0 -0 -0 -0 -0 -0 -0 -0 -0 -2 -0 -6 -0 -0 -0 -0 -0 -0 -0 -0 -0 -0 -0 -0 -0 -0 -0 -8 -3 -1 -0 -0 -0 -0
-0 -0 -0 -0 -0 -0 -0 -0 -0 -0 -0 -0 -0 -0 -5 -0 -0 -0 -0 -0 -0 -0 -0 -0 -0 -0 -0 -0 -0 -0 -0 -0 -10 -3 -2 -0 -0 -0
-0 -0 -0 -0 -0 -8 -0 -0 -0 -1 -0 -0 -0 -0 -0 -0 -0 -0 -0 -0 -0 -0 -0 -0 -0 -0 -0 -0 -0 -0 -0 -0 -0 -0 -7 -3 -0 -0
-0 -0 -0 -0 -0 -0 -0 -0 -0 -0 -0 -0 -0 -0 -0 -0 -0 -0 -1 -0 -0 -0 -0 -0 -0 -0 -0 -0 -0 -0 -0 -0 -0 -0 -0 -1 -0 -0
-0 -0 -0 -0 -5 -6 -0 -0 -0 -0 -0 -0 -0 -0 -0 -0 -0 -0 -0 -0 -0 -0 -0 -0 -0 -0 -0 -0 -0 -0 -0 -0 -0 -0 -0 -0 -0 -0
-0 -0 -0 -0 -0 -0 -0 -0 -0 -0 -0 -0 -0 -0 -9 -0 -0 -0 -0 -0 -0 -0 -0 -0 -0 -0 -0 -0 -0 -0 -0 -0 -0 -0 -0 -0 -0 -0
-0 -0 -0 -0 -0 -0 -0 -0 -0 -0 -0 -0 -0 -3 -5 -3 -3 -0 -0 -0 -0 -0 -0 -0 -0 -0 -0 -0 -0 -0 -0 -0 -0 -0 -0 -0 -0 -0
-0 -0 -0 -0 -2 -4 -0 -0 -9 -0 -0 -0 -0 -0 -5 -0 -0 -0 -0 -0 -0 -0 -0 -0 -0 -0 -0 -0 -0 -0 -0 -0 -0 -0 -0 -0 -0 -0
-0 -0 -0 -0 -0 -10 -0 -0 -0 -0 -0 -0 -0 -0 -0 -0 -0 -7 -6 -0 -0 -0 -0 -0 -0 -0 -0 -0 -0 -0 -0 -0 -0 -0 -0 -0 -0 -0
Wind_Speed
26 25 27 25 28 29 29 30 33 40 39 39 39 37 35 37 39 42 43 44 46 46 46 46 45 44 38 40 43 43 41 41 42 42 40 41 40 43
25 25 23 26 28 25 28 30 32 34 37 36 37 38 38 42 42 44 45 47 45 44 44 43 44 39 34 36 38 39 40 40 40 41 40 41 40 41
23 23 24 26 24 26 29 32 31 33 39 39 39 39 43 44 45 40 40 39 38 39 41 42 38 33 35 36 37 37 37 38 39 39 40 41 43 42
25 24 23 25 26 31 31 33 34 37 37 40 40 41 42 41 38 38 36 36 38 39 41 40 40 35 35 38 38 36 35 36 36 36 38 39 42 45
25 24 25 25 28 30 33 35 36 35 35 36 38 37 36 37 37 35 36 37 38 39 39 38 37 39 38 37 34 33 34 34 34 35 35 36 39 43
24 23 25 26 28 30 32 32 32 33 34 34 34 35 33 34 33 37 38 37 38 38 36 37 35 35 32 38 36 31 31 32 32 32 34 35 36 39
23 24 25 27 26 25 27 27 28 29 30 29 30 31 32 34 35 36 38 38 35 33 32 33 32 31 29 30 26 26 29 30 29 29 27 29 33 34
24 26 26 27 24 23 28 26 25 27 26 26 26 27 29 33 33 36 36 35 35 29 35 33 30 30 27 25 22 24 27 27 27 28 27 23 24 27
25 26 26 26 27 29 30 32 30 26 25 25 25 26 26 28 32 34 32 28 28 28 29 33 31 31 29 23 24 23 24 24 25 27 26 22 20 18
25 24 24 25 26 28 30 30 28 27 25 25 29 30 27 25 21 21 20 20 19 20 22 29 31 34 32 29 27 26 25 24 23 25 22 22 19 19
23 23 23 23 24 28 30 28 27 26 26 31 32 25 21 15 13 14 16 18 17 14 12 23 30 34 33 33 31 29 26 23 21 22 19 15 19 17
22 23 23 22 24 26 27 26 27 26 29 26 25 23 20 18 19 19 11 12 12 12 10 17 28 25 26 26 26 28 25 23 20 19 18 14 14 18
22 22 21 23 26 27 24 22 20 24 25 22 25 28 23 22 21 20 17 12 10 5 3 6 16 26 24 24 24 24 25 22 20 19 20 14 13 19
18 18 20 23 25 22 20 17 19 22 22 26 26 27 27 22 18 15 9 10 4 5 6 5 4 25 24 22 20 19 22 23 21 19 18 22 14 11
15 15 17 19 17 18 17 17 18 20 22 26 23 27 25 18 13 13 11 8 7 4 8 7 12 25 26 25 23 20 18 20 22 22 19 18 22 16
13 15 15 16 15 14 16 17 18 20 22 22 26 28 26 22 18 14 13 8 10 16 7 10 11 18 28 27 25 24 21 20 19 20 18 19 18 16
13 16 18 17 18 20 19 18 20 21 22 25 25 27 30 28 22 13 10 17 15 2 22 15 12 15 23 26 28 27 27 25 20 21 20 21 20 18
13 14 14 14 15 18 19 19 19 21 22 24 20 25 28 30 29 16 14 24 25 6 6 19 5 13 17 21 25 26 24 27 25 23 20 21 22 22
11 11 10 9 12 14 15 16 20 22 22 20 21 21 26 29 29 29 24 25 25 19 13 12 18 17 15 17 21 25 25 19 23 24 23 22 21 21
8 8 8 6 7 9 11 15 18 20 20 19 20 16 20 26 28 27 27 25 23 21 20 20 18 16 17 18 18 16 19 20 21 21 21 21 20 18
8 7 6 5 5 6 9 11 14 16 16 17 15 15 17 21 27 26 26 25 23 23 23 22 21 21 20 20 19 17 16 16 16 14 18 20 20 21
9 8 8 9 9 9 9 11 13 13 12 13 15 16 15 17 22 26 25 25 24 23 22 21 20 20 19 21 21 17 14 15 15 16 15 14 17 19
9 8 7 7 7 8 8 9 10 10 11 13 13 13 14 14 12 23 25 24 24 24 23 21 19 18 19 18 16 14 14 15 16 15 16 15 14 14
Wind_Direction
338 338 337 340 339 336 336 333 330 324 321 320 319 319 319 321 321 320 317 315 310 307 304 300 297 294 293 289 286 284 285 282 277 271 270 268 263 258
341 336 336 339 340 336 337 333 330 325 321 324 323 321 322 320 320 318 316 311 310 306 303 299 297 295 294 294 291 287 284 281 277 272 268 264 262 260
342 339 338 339 337 338 336 333 331 329 323 323 323 323 320 320 320 320 318 316 313 309 305 299 302 298 292 291 291 289 286 282 278 273 266 264 259 258
349 346 343 342 337 335 335 333 331 327 326 323 324 323 323 323 324 322 322 319 314 310 304 306 299 295 293 287 285 288 287 283 281 275 266 261 258 254
352 348 342 339 336 334 332 331 330 331 330 328 326 328 329 327 326 326 322 320 316 311 309 308 305 293 286 286 286 288 287 285 280 275 265 259 257 251
349 346 341 340 337 335 334 334 335 334 334 333 331 330 332 331 331 324 320 322 317 316 315 309 308 303 288 282 284 288 286 285 280 278 267 259 252 249
350 347 346 342 340 341 340 340 339 339 338 338 336 335 334 333 330 329 323 323 323 321 321 318 314 314 297 291 291 289 287 285 283 278 269 262 254 249
349 347 345 343 347 345 343 344 343 339 339 337 336 335 335 333 335 330 329 328 324 329 321 315 315 304 303 303 297 289 288 288 283 276 261 265 259 248
348 348 346 344 345 343 342 341 343 344 343 342 342 342 340 340 336 332 332 331 326 328 326 312 306 293 291 296 288 285 289 290 286 275 257 260 256 246
349 348 347 346 347 346 344 345 347 348 349 349 345 342 343 343 345 345 345 344 339 335 330 315 300 283 281 284 287 280 285 291 288 276 256 253 251 242
350 350 349 347 349 347 347 349 350 352 354 345 341 347 351 353 349 352 353 354 356 358 359 327 298 274 273 271 274 273 276 280 279 272 255 256 243 240
351 350 352 354 351 351 351 352 351 355 353 356 357 358 1 4 5 5 5 357 360 2 29 356 294 294 279 281 280 272 266 265 266 267 259 250 241 236
351 352 357 356 351 350 354 357 359 358 0 3 359 352 3 8 10 13 19 16 5 352 214 35 340 275 278 278 275 267 250 251 253 262 249 253 246 239
353 356 355 353 353 358 1 4 3 3 5 3 359 355 356 9 17 21 19 25 31 224 209 168 155 273 271 271 266 271 254 242 243 252 255 235 245 247
358 359 359 359 1 4 8 8 5 7 7 4 6 356 358 13 21 23 29 35 40 210 191 163 186 222 259 258 260 265 258 248 241 244 249 246 240 246
353 356 1 0 4 8 10 13 13 8 4 7 2 352 356 7 19 30 34 50 51 302 153 155 158 188 240 251 255 256 259 251 254 250 251 244 245 247
352 352 353 1 3 7 12 16 14 11 7 4 4 359 344 351 10 35 47 33 44 95 322 83 138 176 230 251 251 254 253 252 256 254 254 247 250 253
343 346 352 359 5 8 13 17 20 18 13 8 14 4 350 339 346 29 38 1 344 212 212 304 271 144 228 243 240 247 253 248 252 255 259 254 255 260
337 341 348 356 1 7 13 18 15 19 20 21 15 13 358 339 329 336 7 356 310 273 245 247 310 313 285 258 253 233 247 264 260 256 258 262 263 264
327 330 337 343 355 4 10 12 13 16 20 26 21 28 18 351 329 328 328 315 303 285 275 279 271 261 258 258 269 274 265 267 271 261 267 272 274 274
321 318 318 327 336 349 358 5 9 13 22 26 34 35 30 14 336 330 324 311 306 314 305 292 275 262 244 242 246 267 281 282 284 275 281 272 269 272
311 310 314 324 333 342 348 353 357 6 16 25 29 32 38 33 5 329 328 323 312 309 303 292 287 287 269 255 257 276 289 283 284 284 291 288 274 274
306 305 302 307 315 321 331 340 349 356 5 13 21 31 36 40 51 356 326 328 323 316 315 297 285 299 282 286 291 299 298 294 294 292 288 290 295 301